Time,TemperatureF,DewpointF,PressureIn,WindDirection,WindDirectionDegrees,WindSpeedMPH,WindSpeedGustMPH,Humidity,HourlyPrecipIn,Conditions,Clouds,dailyrainin,SoftwareType,DateUTC
2013-04-16 00:00:00,18.0,-99.9,-100.00,ESE,102,15.0,21.0,-999,-99.99,,,-99.99,,2013-04-16 06:00:00,
2013-04-16 00:32:00,18.0,-99.9,-100.00,ESE,102,15.0,21.0,-999,-99.99,,,-99.99,,2013-04-16 06:32:00,
2013-04-16 00:42:00,18.0,-99.9,-100.00,ESE,102,15.0,21.0,-999,-99.99,,,-99.99,,2013-04-16 06:42:00,
2013-04-16 00:52:00,18.0,-99.9,-100.00,ESE,102,15.0,21.0,-999,-99.99,,,-99.99,,2013-04-16 06:52:00,
2013-04-16 01:00:00,18.0,-99.9,-100.00,East,84,18.0,23.0,-999,-99.99,,,-99.99,,2013-04-16 07:00:00,
2013-04-16 01:32:00,18.0,-99.9,-100.00,East,84,18.0,23.0,-999,-99.99,,,-99.99,,2013-04-16 07:32:00,
2013-04-16 01:42:00,18.0,-99.9,-100.00,East,84,18.0,23.0,-999,-99.99,,,-99.99,,2013-04-16 07:42:00,
2013-04-16 01:53:00,18.0,-99.9,-100.00,East,84,18.0,23.0,-999,-99.99,,,-99.99,,2013-04-16 07:53:00,
2013-04-16 02:00:00,17.0,-99.9,-100.00,East,97,18.0,21.0,-999,-99.99,,,-99.99,,2013-04-16 08:00:00,
2013-04-16 02:32:00,17.0,-99.9,-100.00,East,97,18.0,21.0,-999,-99.99,,,-99.99,,2013-04-16 08:32:00,
2013-04-16 02:42:00,17.0,-99.9,-100.00,East,97,18.0,21.0,-999,-99.99,,,-99.99,,2013-04-16 08:42:00,
2013-04-16 02:52:00,17.0,-99.9,-100.00,East,97,18.0,21.0,-999,-99.99,,,-99.99,,2013-04-16 08:52:00,
2013-04-16 03:00:00,18.0,-99.9,-100.00,ESE,103,15.0,20.0,-999,-99.99,,,-99.99,,2013-04-16 09:00:00,
2013-04-16 03:33:00,18.0,-99.9,-100.00,ESE,103,15.0,20.0,-999,-99.99,,,-99.99,,2013-04-16 09:33:00,
2013-04-16 03:43:00,18.0,-99.9,-100.00,ESE,103,15.0,20.0,-999,-99.99,,,-99.99,,2013-04-16 09:43:00,
2013-04-16 03:53:00,18.0,-99.9,-100.00,ESE,103,15.0,20.0,-999,-99.99,,,-99.99,,2013-04-16 09:53:00,
2013-04-16 04:00:00,18.0,-99.9,-100.00,East,90,18.0,27.0,-999,-99.99,,,-99.99,,2013-04-16 10:00:00,
2013-04-16 04:33:00,18.0,-99.9,-100.00,East,90,18.0,27.0,-999,-99.99,,,-99.99,,2013-04-16 10:33:00,
2013-04-16 04:43:00,18.0,-99.9,-100.00,East,90,18.0,27.0,-999,-99.99,,,-99.99,,2013-04-16 10:43:00,
2013-04-16 04:53:00,18.0,-99.9,-100.00,East,90,18.0,27.0,-999,-99.99,,,-99.99,,2013-04-16 10:53:00,
2013-04-16 05:00:00,18.0,-99.9,-100.00,ESE,122,24.0,35.0,-999,-99.99,,,-99.99,,2013-04-16 11:00:00,
2013-04-16 05:32:00,18.0,-99.9,-100.00,ESE,122,24.0,35.0,-999,-99.99,,,-99.99,,2013-04-16 11:32:00,
2013-04-16 05:42:00,18.0,-99.9,-100.00,ESE,122,24.0,35.0,-999,-99.99,,,-99.99,,2013-04-16 11:42:00,
2013-04-16 05:53:00,18.0,-99.9,-100.00,ESE,122,24.0,35.0,-999,-99.99,,,-99.99,,2013-04-16 11:53:00,
2013-04-16 06:00:00,18.0,-99.9,-100.00,ESE,113,21.0,26.0,-999,-99.99,,,-99.99,,2013-04-16 12:00:00,
2013-04-16 06:32:00,18.0,-99.9,-100.00,ESE,113,21.0,26.0,-999,-99.99,,,-99.99,,2013-04-16 12:32:00,
2013-04-16 06:42:00,18.0,-99.9,-100.00,ESE,113,21.0,26.0,-999,-99.99,,,-99.99,,2013-04-16 12:42:00,
2013-04-16 06:52:00,18.0,-99.9,-100.00,ESE,113,21.0,26.0,-999,-99.99,,,-99.99,,2013-04-16 12:52:00,
2013-04-16 07:00:00,20.0,-99.9,-100.00,ESE,106,16.0,26.0,-999,-99.99,,,-99.99,,2013-04-16 13:00:00,
2013-04-16 07:32:00,20.0,-99.9,-100.00,ESE,106,16.0,26.0,-999,-99.99,,,-99.99,,2013-04-16 13:32:00,
2013-04-16 07:42:00,20.0,-99.9,-100.00,ESE,106,16.0,26.0,-999,-99.99,,,-99.99,,2013-04-16 13:42:00,
2013-04-16 07:52:00,20.0,-99.9,-100.00,ESE,106,16.0,26.0,-999,-99.99,,,-99.99,,2013-04-16 13:52:00,
2013-04-16 08:00:00,21.0,-99.9,-100.00,ESE,123,16.0,25.0,-999,-99.99,,,-99.99,,2013-04-16 14:00:00,
2013-04-16 08:32:00,21.0,-99.9,-100.00,ESE,123,16.0,25.0,-999,-99.99,,,-99.99,,2013-04-16 14:32:00,
2013-04-16 08:42:00,21.0,-99.9,-100.00,ESE,123,16.0,25.0,-999,-99.99,,,-99.99,,2013-04-16 14:42:00,
2013-04-16 08:52:00,21.0,-99.9,-100.00,ESE,123,16.0,25.0,-999,-99.99,,,-99.99,,2013-04-16 14:52:00,
2013-04-16 09:00:00,23.0,-99.9,-100.00,SE,128,19.0,30.0,-999,-99.99,,,-99.99,,2013-04-16 15:00:00,
2013-04-16 09:33:00,23.0,-99.9,-100.00,SE,128,19.0,30.0,-999,-99.99,,,-99.99,,2013-04-16 15:33:00,
2013-04-16 09:43:00,23.0,-99.9,-100.00,SE,128,19.0,30.0,-999,-99.99,,,-99.99,,2013-04-16 15:43:00,
2013-04-16 09:53:00,23.0,-99.9,-100.00,SE,128,19.0,30.0,-999,-99.99,,,-99.99,,2013-04-16 15:53:00,
2013-04-16 10:00:00,28.0,-99.9,-100.00,ESE,102,19.0,21.0,-999,-99.99,,,-99.99,,2013-04-16 16:00:00,
2013-04-16 10:33:00,28.0,-99.9,-100.00,ESE,102,19.0,21.0,-999,-99.99,,,-99.99,,2013-04-16 16:33:00,
2013-04-16 10:42:00,28.0,-99.9,-100.00,ESE,102,19.0,21.0,-999,-99.99,,,-99.99,,2013-04-16 16:42:00,
2013-04-16 10:53:00,28.0,-99.9,-100.00,ESE,102,19.0,21.0,-999,-99.99,,,-99.99,,2013-04-16 16:53:00,
2013-04-16 11:00:00,29.0,-99.9,-100.00,ESE,111,20.0,23.0,-999,-99.99,,,-99.99,,2013-04-16 17:00:00,
2013-04-16 11:33:00,29.0,-99.9,-100.00,ESE,111,20.0,23.0,-999,-99.99,,,-99.99,,2013-04-16 17:33:00,
2013-04-16 11:44:00,29.0,-99.9,-100.00,ESE,111,20.0,23.0,-999,-99.99,,,-99.99,,2013-04-16 17:44:00,
2013-04-16 11:53:00,29.0,-99.9,-100.00,ESE,111,20.0,23.0,-999,-99.99,,,-99.99,,2013-04-16 17:53:00,
2013-04-16 12:00:00,26.0,-99.9,-100.00,ESE,110,28.0,33.0,-999,-99.99,,,-99.99,,2013-04-16 18:00:00,
2013-04-16 12:32:00,26.0,-99.9,-100.00,ESE,110,28.0,33.0,-999,-99.99,,,-99.99,,2013-04-16 18:32:00,
2013-04-16 12:43:00,26.0,-99.9,-100.00,ESE,110,28.0,33.0,-999,-99.99,,,-99.99,,2013-04-16 18:43:00,
2013-04-16 12:52:00,26.0,-99.9,-100.00,ESE,110,28.0,33.0,-999,-99.99,,,-99.99,,2013-04-16 18:52:00,
2013-04-16 13:00:00,29.0,-99.9,-100.00,ESE,102,20.0,28.0,-999,-99.99,,,-99.99,,2013-04-16 19:00:00,
2013-04-16 13:32:00,29.0,-99.9,-100.00,ESE,102,20.0,28.0,-999,-99.99,,,-99.99,,2013-04-16 19:32:00,
2013-04-16 13:43:00,29.0,-99.9,-100.00,ESE,102,20.0,28.0,-999,-99.99,,,-99.99,,2013-04-16 19:43:00,
2013-04-16 13:52:00,29.0,-99.9,-100.00,ESE,102,20.0,28.0,-999,-99.99,,,-99.99,,2013-04-16 19:52:00,
2013-04-16 14:00:00,32.0,-99.9,-100.00,SE,145,14.0,19.0,-999,-99.99,,,-99.99,,2013-04-16 20:00:00,
2013-04-16 14:32:00,32.0,-99.9,-100.00,SE,145,14.0,19.0,-999,-99.99,,,-99.99,,2013-04-16 20:32:00,
2013-04-16 14:42:00,32.0,-99.9,-100.00,SE,145,14.0,19.0,-999,-99.99,,,-99.99,,2013-04-16 20:42:00,
2013-04-16 14:52:00,32.0,-99.9,-100.00,SE,145,14.0,19.0,-999,-99.99,,,-99.99,,2013-04-16 20:52:00,
2013-04-16 15:00:00,31.0,-99.9,-100.00,SSE,153,15.0,22.0,-999,-99.99,,,-99.99,,2013-04-16 21:00:00,
2013-04-16 15:33:00,31.0,-99.9,-100.00,SSE,153,15.0,22.0,-999,-99.99,,,-99.99,,2013-04-16 21:33:00,
2013-04-16 15:43:00,31.0,-99.9,-100.00,SSE,153,15.0,22.0,-999,-99.99,,,-99.99,,2013-04-16 21:43:00,
2013-04-16 15:53:00,31.0,-99.9,-100.00,SSE,153,15.0,22.0,-999,-99.99,,,-99.99,,2013-04-16 21:53:00,
2013-04-16 16:00:00,26.0,-99.9,-100.00,SSE,165,12.0,18.0,-999,-99.99,,,-99.99,,2013-04-16 22:00:00,
2013-04-16 16:33:00,26.0,-99.9,-100.00,SSE,165,12.0,18.0,-999,-99.99,,,-99.99,,2013-04-16 22:33:00,
2013-04-16 16:43:00,26.0,-99.9,-100.00,SSE,165,12.0,18.0,-999,-99.99,,,-99.99,,2013-04-16 22:43:00,
2013-04-16 16:52:00,26.0,-99.9,-100.00,SSE,165,12.0,18.0,-999,-99.99,,,-99.99,,2013-04-16 22:52:00,
2013-04-16 17:00:00,25.0,-99.9,-100.00,ESE,114,13.0,16.0,-999,-99.99,,,-99.99,,2013-04-16 23:00:00,
2013-04-16 17:32:00,25.0,-99.9,-100.00,ESE,114,13.0,16.0,-999,-99.99,,,-99.99,,2013-04-16 23:32:00,
2013-04-16 17:43:00,25.0,-99.9,-100.00,ESE,114,13.0,16.0,-999,-99.99,,,-99.99,,2013-04-16 23:43:00,
2013-04-16 17:52:00,25.0,-99.9,-100.00,ESE,114,13.0,16.0,-999,-99.99,,,-99.99,,2013-04-16 23:52:00,
2013-04-16 18:00:00,24.0,-99.9,-100.00,ESE,102,14.0,19.0,-999,-99.99,,,-99.99,,2013-04-17 00:00:00,
2013-04-16 18:32:00,24.0,-99.9,-100.00,ESE,102,14.0,19.0,-999,-99.99,,,-99.99,,2013-04-17 00:32:00,
2013-04-16 18:42:00,24.0,-99.9,-100.00,ESE,102,14.0,19.0,-999,-99.99,,,-99.99,,2013-04-17 00:42:00,
2013-04-16 18:52:00,24.0,-99.9,-100.00,ESE,102,14.0,19.0,-999,-99.99,,,-99.99,,2013-04-17 00:52:00,
2013-04-16 19:00:00,22.0,-99.9,-100.00,East,82,23.0,26.0,-999,-99.99,,,-99.99,,2013-04-17 01:00:00,
2013-04-16 19:32:00,22.0,-99.9,-100.00,East,82,23.0,26.0,-999,-99.99,,,-99.99,,2013-04-17 01:32:00,
2013-04-16 19:42:00,22.0,-99.9,-100.00,East,82,23.0,26.0,-999,-99.99,,,-99.99,,2013-04-17 01:42:00,
2013-04-16 19:52:00,22.0,-99.9,-100.00,East,82,23.0,26.0,-999,-99.99,,,-99.99,,2013-04-17 01:52:00,
2013-04-16 20:00:00,21.0,-99.9,-100.00,East,81,21.0,30.0,-999,-99.99,,,-99.99,,2013-04-17 02:00:00,
2013-04-16 20:32:00,21.0,-99.9,-100.00,East,81,21.0,30.0,-999,-99.99,,,-99.99,,2013-04-17 02:32:00,
2013-04-16 20:42:00,21.0,-99.9,-100.00,East,81,21.0,30.0,-999,-99.99,,,-99.99,,2013-04-17 02:42:00,
2013-04-16 20:53:00,21.0,-99.9,-100.00,East,81,21.0,30.0,-999,-99.99,,,-99.99,,2013-04-17 02:53:00,
2013-04-16 21:00:00,22.0,-99.9,-100.00,ENE,77,27.0,28.0,-999,-99.99,,,-99.99,,2013-04-17 03:00:00,
2013-04-16 21:33:00,22.0,-99.9,-100.00,ENE,77,27.0,28.0,-999,-99.99,,,-99.99,,2013-04-17 03:33:00,
2013-04-16 21:43:00,22.0,-99.9,-100.00,ENE,77,27.0,28.0,-999,-99.99,,,-99.99,,2013-04-17 03:43:00,
2013-04-16 21:53:00,22.0,-99.9,-100.00,ENE,77,27.0,28.0,-999,-99.99,,,-99.99,,2013-04-17 03:53:00,
2013-04-16 22:00:00,21.0,-99.9,-100.00,East,98,16.0,19.0,-999,-99.99,,,-99.99,,2013-04-17 04:00:00,
2013-04-16 22:33:00,21.0,-99.9,-100.00,East,98,16.0,19.0,-999,-99.99,,,-99.99,,2013-04-17 04:33:00,
2013-04-16 22:43:00,21.0,-99.9,-100.00,East,98,16.0,19.0,-999,-99.99,,,-99.99,,2013-04-17 04:43:00,
2013-04-16 22:53:00,21.0,-99.9,-100.00,East,98,16.0,19.0,-999,-99.99,,,-99.99,,2013-04-17 04:53:00,
2013-04-16 23:00:00,21.0,-99.9,-100.00,ENE,77,16.0,24.0,-999,-99.99,,,-99.99,,2013-04-17 05:00:00,
2013-04-16 23:32:00,21.0,-99.9,-100.00,ENE,77,16.0,24.0,-999,-99.99,,,-99.99,,2013-04-17 05:32:00,
2013-04-16 23:43:00,21.0,-99.9,-100.00,ENE,77,16.0,24.0,-999,-99.99,,,-99.99,,2013-04-17 05:43:00,
2013-04-16 23:52:00,21.0,-99.9,-100.00,ENE,77,16.0,24.0,-999,-99.99,,,-99.99,,2013-04-17 05:52:00,